User: anonymous   Login
Location: Budapest
(47.4979°N, 19.0402°E)
Time: 15:42:46
(UTC+02:00)
Language:

Hubble Space Telescope - Orbit

View from above orbital plane
View from above orbital plane
View from above satellite
View from above satellite

Ground track
Ground track

The orbit data is extracted from the following two-line orbital elements,

1 20580U 90037B   17293.94973312 +.00000695 +00000-0 +31817-4 0  9998
2 20580 028.4694 256.4429 0002952 087.6660 311.3846 15.08892796309219
Epoch (UTC): 20 October 2017 22:47:36
Eccentricity: 0.0002952
inclination: 28.4694°
perigee height: 537 km
apogee height: 541 km
right ascension of ascending node: 256.4429°
argument of perigee: 87.6660°
revolutions per day: 15.08892796
mean anomaly at epoch: 311.3846°
orbit number at epoch: 30921

The dashed part of the orbit path shows where the satellite is in the earth's shadow,  

DLR